Tracking 27122 objects as of 24-Mar-2023
HD Live streaming from Space Station
objects crossing your sky now

STARLINK-2283

Track STARLINK-2283 now!
10-day predictions
STARLINK-2283 is classified as:


NORAD ID: 48014
Int'l Code: 2021-024AP
Perigee: 553.0 km
Apogee: 555.3 km
Inclination: 53.1 °
Period: 95.6 minutes
Semi major axis: 6925 km
RCS: Unknown
Launch date: March 24, 2021
Source: United States (US)
Launch site: AIR FORCE EASTERN TEST RANGE (AFETR)
Your satellite tracking list
Your tracking list is empty




NASA's NSSDC Master Catalog

Two Line Element Set (TLE):
1 48014U 21024AP  23083.16192857  .00060192  00000-0  40183-2 0  9997
2 48014  53.0527  81.9416 0001608 104.6089 255.5078 15.06466402111990
Source of the keplerian elements: AFSPC